Zurück zum Katalog

STARLINK-2680

AktivKommunikationVLEO
NORAD 48432·PAYLOAD·🇺🇸 United States

Gestartet May 9, 2021 von Cape Canaveral Space Force Station

Loading…

Nächste Überflüge (nächste 24 Stunden)

TLE

AktuellSource: CelesTrak SupGP

Epoche: Sep 14, 2026, 20:14 UTC

1 48432C 21040E   26257.84354167 -.00014073  00000+0 -45253-3 0  2573
2 48432  53.1593 352.6282 0001258  77.3640 273.1592 15.31711359    16

Verfolge STARLINK-2680 in Echtzeit mit AllMySat

Download on the App Store